Location: Saratoga Springs
(43.0831°N, 73.7850°W)
Time: 21:15:36
(UTC-04:00)

Vanguard 1 Rocket - Pass Details

Date: 17 April 2024
Orbit: 651 x 4220 km, 34.3° (Epoch: 20 May)

Event Time Altitude Azimuth Distance (km) Brightness Sun altitude
Rises 02:35:14 0° 272° (W) 5,325 - -31.5°
Reaches altitude 10° 02:38:58 10° 261° (W) 4,790 - -31.2°
Maximum altitude 02:50:14 27° 210° (SSW) 4,705 - -30.1°
Exits shadow 03:00:49 18° 175° (S) 6,118 11.1 -29.0°
Drops below altitude 10° 03:06:59 10° 163° (SSE) 7,140 11.6 -28.3°
Sets 03:14:39 0° 154° (SSE) 8,406 12.1 -27.5°
